Погода в Бустане

Узбекистан     40°31′31″N   68°12′20″E
темп.,
°C
ветер,
м/с
пор.,
м/с
влажн.,
%
обл.,
%
осадки,
мм/ч
давл.,
гПа
погр.,
м
3 марта, ср
ср323:00+10с3651100 0.0 1025337
02:00+8ссз1360100 0.0 1024142
05:00+7с3570100 0.0 1025279
08:00+6ссв227383 0.0 1024123
11:00+10ссз015345 0.0 1022500
14:00+14ююз01450 0.0 1020814
17:00+15с214120 0.0 10201095
20:00+12св23548 0.0 102163
4 марта, чт
чт423:00+10св33664 0.0 102176
02:00+9юв49720 0.0 1021214
05:00+8юв597812 0.3 1020222
08:00+9юв71272100 1.2 1020334
11:00+13юв81251100 1.7 1018539
14:00+16юв6740100 0.1 10161202
17:00+15в2351100 1.1 1017211
20:00+12юз3777100 1.6 1021286
5 марта, пт
пт523:00+8сз71275100 1.9 1025628
02:00+6ссз6786100 2.9 1028690
05:00+6с3581100 5.8 1030591
08:00+5всв337984 0.1 1031376
11:00+8св226070 0.1 1029681
14:00+11всв34387 0.0 10261202
17:00+12всв44373 0.0 10231082
20:00+9св33480 0.0 102462
6 марта, сб
сб623:00+7св235431 0.0 102175
02:00+7св3359100 0.0 101862
05:00+6св456697 0.0 1015100
08:00+7св3646100 0.0 1012142
11:00+12с2230100 0.0 1011285
14:00+14зсз5635100 0.0 1011498
17:00+11с2356100 0.5 1012285
20:00+11юв1258100 0.0 101370
7 марта, вс
вс723:00+10сз1261100 0.0 101642
02:00+9юз21369100 0.1 10161348
05:00+8з2376100 0.4 1018418
08:00+8юз1270100 0.5 1020592
11:00+9вюв2263100 0.6 1020890
14:00+11юв2254100 0.0 10181194
17:00+12ююв3253100 0.0 10181153
20:00+9ююв346886 0.0 1018130